Regional Weather Roundup
Issued by NWS

Home | Current Version | Previous Version | Text Only | Print | Product List | Glossary Off
Versions: 1 2 3 4 5 6 7 8 9 10 11 12 13 14 15 16 17 18 19 20 21 22 23 24 25 26 27 28 29 30 31 32 33 34 35 36 37 38 39 40 41 42 43 44 45 46 47 48 49 50

000
ASUS43 KFSD 042310
RWRSD

WEATHER ROUNDUP FOR SOUTH DAKOTA
NATIONAL WEATHER SERVICE SIOUX FALLS SD
600 PM CDT SAT JUL 04 2015

NOTE: "FAIR" INDICATES FEW OR NO CLOUDS BELOW 12,000 FEET WITH NO
SIGNIFICANT WEATHER AND/OR OBSTRUCTIONS TO VISIBILITY.


SDZ001>005-009-010-012>017-050000-
NORTHWEST AND NORTH CENTRAL SOUTH DAKOTA

CITY           SKY/WX    TMP DP  RH WIND       PRES   REMARKS
BUFFALO          N/A     93  50  23 NE5       29.70F
FAITH            N/A     89  67  47 S10       29.75F
MOBRIDGE       SUNNY     89  71  55 SE18      29.72F HX  95
$$

SDZ012>016-024>037-041>051-057-063-072>074-050000-
SOUTHWEST AND SOUTH CENTRAL SOUTH DAKOTA

CITY           SKY/WX    TMP DP  RH WIND       PRES   REMARKS
RAPID CTY ARPT MOSUNNY   88  64  44 SE3       29.81F
PIERRE         SUNNY     90  68  48 S16       29.72F
CUSTER           N/A     80  63  55 E13       29.99S
ELLSWORTH AFB  MOSUNNY   90  61  37 S6        29.80F
PHILIP         SUNNY     95  67  39 S9        29.72F HX  99
PINE RIDGE     SUNNY     90  62  39 S10       29.81F
SPEARFISH      LGT RAIN  86  59  39 CALM      29.87S
WINNER         FAIR      93  61  34 S20G28    29.78F
$$

SDZ004>011-016>023-039-040-050000-
NORTHEAST SOUTH DAKOTA

CITY           SKY/WX    TMP DP  RH WIND       PRES   REMARKS
ABERDEEN       SUNNY     86  69  56 S16G25    29.77F
WATERTOWN      MOSUNNY   83  64  52 S14       29.85F
BROOKINGS      MOSUNNY   81  64  57 S14       29.89F
SISSETON         N/A     86  65  49 S14G21    29.79F
$$

SDZ017-020-022-023-036>040-048>070-050000-
SOUTHEAST SOUTH DAKOTA

CITY           SKY/WX    TMP DP  RH WIND       PRES   REMARKS
SIOUX FALLS    PTSUNNY   80  65  59 S16G25    29.89F
HURON          MOSUNNY   83  66  56 S15G24    29.80F
CHAMBERLAIN    SUNNY     83  70  65 SE15      29.79F
MITCHELL       SUNNY     84  68  58 S15G22    29.84F
YANKTON        MOSUNNY   81  64  57 SE16      29.86F
$$

ABBREVIATIONS USED IN REMARKS
   TC - TEMPERATURE IN CELSIUS
  WCI - WIND CHILL INDEX
   HX - HEAT INDEX
  VSB - VISIBILITY




USA.gov is the U.S. government's official web portal to all federal, state and local government web resources and services.